Regional Weather Roundup
Issued by NWS Upton, NY

Current Version | Previous Version | Graphics & Text | Print | Product List | Glossary Off
Versions: 1 2 3 4 5 6 7 8 9 10 11 12 13 14 15 16 17 18 19 20 21 22 23 24 25 26 27 28

000
ASUS41 KOKX 272004
RWROKX

REGIONAL WEATHER ROUNDUP
NATIONAL WEATHER SERVICE NEW YORK NY
400 PM EDT SAT AUG 27 2016

NOTE: "FAIR" INDICATES FEW OR NO CLOUDS BELOW 12,000 FEET WITH NO
SIGNIFICANT WEATHER AND/OR OBSTRUCTIONS TO VISIBILITY.

NYZ071-072-176-178-NJZ106-104-272100-
NEW YORK CITY METRO AREA

CITY           SKY/WX    TMP DP  RH WIND       PRES   REMARKS
Central Park   NOT AVBL
LaGuardia APRT PTSUNNY   88  56  33 SE13      30.16F
Kennedy INTL   PTSUNNY   84  59  42 SE13      30.18F
Newark/Liberty CLOUDY    85  55  35 SE10      30.17S
Bronx Bot Gard   N/A     86  57  37 S7        30.18S
Wall St Helipt CLEAR     88  57  35 SE9       30.18S
Teterboro      MOSUNNY   87  57  35 S13       30.15S
$$

NYZ177-179-078>081-272100-
LONG ISLAND NEW YORK

CITY           SKY/WX    TMP DP  RH WIND       PRES   REMARKS
Farmingdale    PTSUNNY   85  55  35 SE13      30.18S
MacArthur/ISP  CLOUDY    83  55  38 SE12      30.17S
Shirley        SUNNY     84  54  35 SE13      30.18F
Riverhead      NOT AVBL
Westhampton    SUNNY     83  53  35 SE7       30.19F
Southampton      N/A     81  59  47 S8        30.14S
Bridgehampton    N/A     82  59  44 SW1       30.17S
East Hampton   FAIR      81  57  44 SE9       30.17S
Montauk          N/A     81  63  54 SE6       30.18S
$$

NYZ052-065-067-272100-
HUDSON VALLEY

CITY           SKY/WX    TMP DP  RH WIND       PRES   REMARKS
White Plains   MOSUNNY   84  56  38 SE6       30.18F
Newburgh       MOSUNNY   86  64  48 S6        30.19F
Montgomery     SUNNY     86  62  44 CALM      30.17F
Poughkeepsie   SUNNY     86  62  44 SW8       30.16S
Albany         MOSUNNY   85  61  44 NE6       30.16F
$$

NJZ001-105-106-008-010-013-015-019>022-104-272100-
NEW JERSEY

CITY           SKY/WX    TMP DP  RH WIND       PRES   REMARKS
Newark/Liberty CLOUDY    85  55  35 SE10      30.17S
Teterboro      MOSUNNY   87  57  35 S13       30.15S
Caldwell       MOSUNNY   87  58  37 S12       30.17S
Morristown     MOSUNNY   88  59  37 SE10      30.17S
Somerville     PTSUNNY   88  60  38 S6        30.14F
Linden         FAIR     N/A N/A N/A SE10      30.19S
Sussex         SUNNY     85  62  46 SW3       30.18F
Abdover          N/A     87  61  41 VRB3      30.19S
Trenton        MOSUNNY   87  58  37 E8        30.16S
Millville      SUNNY     88  69  53 VRB7      30.15F HX  92
Atlantic City  SUNNY     85  66  53 E8        30.16F
Wrightstown    SUNNY     85  60  43 E6        30.14S
Toms River     SUNNY     85  61  44 E7        30.17F
Belmar         SUNNY     83  60  45 E9        30.19S
$$

PAZ047>061-062-071-272100-
EASTERN PENNSYLVANIA

CITY           SKY/WX    TMP DP  RH WIND       PRES   REMARKS
Philadelphia   PTSUNNY   93  58  30 NE6       30.15S HX  92
Allentown      MOSUNNY   89  60  37 VRB5      30.17S
Scranton       MOSUNNY   86  65  49 VRB3      30.18F
$$

CTZ002-004>006-009-010-012-RIZ004-006-007-MAZ004-011-015-272100-
SOUTHERN NEW ENGLAND
 IN CT

CITY           SKY/WX    TMP DP  RH WIND       PRES   REMARKS
Bradley INTL   MOSUNNY   87  57  35 VRB3      30.16S
Hartford       SUNNY     88  62  41 S6        30.15S
Danbury        MOSUNNY   82  62  50 S8        30.19S
Wtrbury/Oxford MOSUNNY   82  59  44 S7        30.22F
Bridgeport     SUNNY     85  57  38 SE9       30.17S
Meriden        PTSUNNY   88  60  38 SE7       30.16S
New Haven      PTSUNNY   85  60  42 S8        30.18S
Chester        FAIR      84  61  45 VRB6      30.18S
Groton         SUNNY     82  61  48 S8        30.16S
Wilimantic     MOSUNNY   86  60  41 NW5       30.17S

 IN RI

CITY           SKY/WX    TMP DP  RH WIND       PRES   REMARKS
Providence     MOSUNNY   84  59  42 S10       30.16S
Block Island   SUNNY     80  63  55 S8        30.18S
Westerly       SUNNY     81  59  47 S9        30.18S
 IN MA

CITY           SKY/WX    TMP DP  RH WIND       PRES   REMARKS
Boston         PTSUNNY   76  61  59 E15       30.17S
Worcester      MOSUNNY   81  58  45 SW3       30.20S
Westfield      MOSUNNY   85  60  42 S9        30.15F
Provincetown   SUNNY     79  63  57 E8        30.19S
Nantucket      SUNNY     78  59  51 NE13      30.17S
$$

ANZ330-335-338-340-345-350-353-355-272100-
COASTAL MARINE OBSERVATIONS


STATION/POSITION TIME  SKY/WX   TEMP    WIND        PRES    VSBY  WAVE
                                AIR SEA DIR/SP/G                  HT/PER
                 (UTC)          (F)     (DEG/KT/KT) (MB)    (MI)  (FT/S)
NY HARB ENTRANCE 1850            76 75  110/ 10/ 12 1021.6          2/ 7
20S FIRE ISLAND  1850            75 75   70/  8/  8 1021.5          2/10
GREAT SOUTH BAY  1900            77 80  150/ 10/ 12   N/A
23 SSW MONTAUK P 1850            76 77   90/  6/  8 1022.2          2/ 9
15 E BARNEGAT LI 1900               77                N/A           3/ 4
HUDSON CANYON    1850            78 78              1020.8          4/ 5
KINGS POINT      1900            83 77              1021.5
EXECUTION ROCKS  1900            79      60/  8/  8   N/A
CENTRAL LI SOUND 1900            80 78  170/  4/  6   N/A           1
EASTERN LI SOUND 1900            77 73  190/  6/  8   N/A
ROBBINS REEF     1900            78     180/ 15/ 16 1021.3
$$


>>>>>>>>>>>>>>>>>>>>>>>>>>>> KEY <<<<<<<<<<<<<<<<<<<<<<<<<<<
>                                                          <
>     SKY/WX - Sky Condition/Present Weather               <
>     TMP    - Temperature in Fahrenheit                   <
>     DP     - Dew Point in Fahrenheit                     <
>     RH     - Relative Humidity in Percent                <
>     WIND   - Direction (from) and Speed in MPH           <
>     PRES   - Mean Sea Level Pressure (inches of Hg)      <
>     WCI    - Wind Chill Index                            <
>     VSB    - VISIBILITY IN MILES                         <
>     HX     - HEAT INDEX                                  <
>     TC     - TEMPERATURE IN CELSIUS                      <
>     VRB    - VARIABLE WIND DIRECTION                     <
>                                                          <
>>>>>>>>>>>>>>>>>>>>>>>>>>>> KEY <<<<<<<<<<<<<<<<<<<<<<<<<<<




USA.gov is the U.S. government's official web portal to all federal, state and local government web resources and services.